Regional Weather Roundup
Issued by NWS Cleveland, OH

Home | Current Version | Previous Version | Graphics & Text | Print | Product List | Glossary On
Versions: 1 2 3 4 5 6 7 8 9 10 11 12 13 14 15 16 17 18 19 20 21 22 23 24 25 26 27 28 29 30 31 32 33 34 35 36 37 38 39 40 41 42 43 44 45 46 47 48 49 50
000
ASUS41 KCLE 012002
RWRCLE
OHIO REGIONAL WEATHER ROUNDUP
NATIONAL WEATHER SERVICE CLEVELAND, OH
400 PM EDT WED APR 01 2015

NOTE: "FAIR" INDICATES FEW OR NO CLOUDS BELOW 12,000 FEET WITH NO
SIGNIFICANT WEATHER AND/OR OBSTRUCTIONS TO VISIBILITY.

OHZ001>008-015>018-024>027-034-035-043-044-012100-
   NORTHWEST OHIO

CITY           SKY/WX    TMP DP  RH WIND       PRES   REMARKS
DEFIANCE       SUNNY     65  33  30 W5        30.06F
FINDLAY        SUNNY     64  34  32 W8        30.07F
TOLEDO EXPRESS SUNNY     63  35  35 W9G16     30.06F
TOLEDO EXEC    MOSUNNY   63  36  36 W12G17    30.08F
LIMA           SUNNY     65  35  33 VRB5      30.07F
$$

OHZ009>014-019>023-028>033-038-089-012100-
   NORTHEAST OHIO

CITY           SKY/WX    TMP DP  RH WIND       PRES   REMARKS
CLE-HOPKINS    MOSUNNY   58  36  43 SW9       30.13F
CLE-LAKEFRONT  SUNNY     51  33  50 NE3       30.11F
CUY CO. ARPT   MOSUNNY   57  36  44 W12       30.13F
LORAIN-ELYRIA  SUNNY     58  38  47 VRB6      30.10F
ASHTABULA      PTSUNNY   50  34  54 SW7       30.14F
AKRON-CANTON   MOSUNNY   59  33  37 SW9       30.12F
WOOSTER        MOSUNNY   58  38  47 NW10G16   30.11F
MANSFIELD      SUNNY     59  36  42 SW8G20    30.10F
YOUNGSTOWN     PTSUNNY   54  31  41 W10       30.13S
$$

OHZ042-051>053-060>062-070>072-077>081-012100-
  SOUTHWEST OHIO

CITY           SKY/WX    TMP DP  RH WIND       PRES   REMARKS
CINC-COVINGTON MOSUNNY   65  31  28 VRB3      30.10F
CINC-LUNKEN    SUNNY     65  33  30 VRB7      30.10F
HAMILTON       SUNNY     66  31  27 VRB6      30.10F
DAYTON         SUNNY     65  31  28 CALM      30.09F
WRIGHT-PAT AFB SUNNY     65  29  26 VRB1      30.09F
DAYTON GENERAL SUNNY     63  30  28 CALM      30.09F
WILMINGTON     SUNNY     62  29  28 VRB3      30.10F
$$

OHZ036-037-039>041-045>050-054>059-063>069-073>076-082>088-012100-
  CENTRAL AND SOUTHEAST OHIO

CITY           SKY/WX    TMP DP  RH WIND       PRES   REMARKS
COLUMBUS       MOSUNNY   62  34  35 CALM      30.11F
OSU AIRPORT    SUNNY     63  33  32 CALM      30.10F
BOLTON FIELD   NOT AVBL
RICKENBACK AFB NOT AVBL
NEWARK         SUNNY     60  34  37 VRB5      30.11F
MARION         SUNNY     63  32  31 W12       30.10F
LANCASTER      SUNNY     62  33  33 VRB3      30.13F
ZANESVILLE     SUNNY     60  32  34 NW8       30.13F
NEW PHILLY     MOSUNNY   60  33  36 NW9       30.13F
$$



USA.gov is the U.S. government's official web portal to all federal, state and local government web resources and services.